• Em Portugal
  • Lista de países
  • Para 7 dias
  • Temperatura da água
  • Mapas de satélite
  • Mapa do tempo
  • Widgets de tempo
  • user-avatar
    Iniciar Sessão

    Previsão horária em Kemer

    Hoje, 23 Fevereiro, Sexta-feira

    Tempo Temperatura Precipitação Vento Pressão Humidade
    00:00 +12°C° 0,5 mm 4 m/s 745 mmHg 88%
    01:00 +12°C° 0,5 mm 4 m/s 745 mmHg 88%
    02:00 +12°C° 0,5 mm 4 m/s 745 mmHg 89%
    03:00 +12°C° 0,4 mm 4 m/s 745 mmHg 89%
    04:00 +12°C° 0,4 mm 4 m/s 745 mmHg 89%
    05:00 +12°C° 0,4 mm 4 m/s 745 mmHg 90%
    06:00 +12°C° 0,3 mm 4 m/s 745 mmHg 89%
    07:00 +12°C° 0,3 mm 4 m/s 745 mmHg 88%
    08:00 +12°C° 0,3 mm 4 m/s 745 mmHg 87%
    09:00 +13°C° 0,2 mm 4 m/s 745 mmHg 84%
    10:00 +14°C° 0,2 mm 4 m/s 745 mmHg 80%
    11:00 +14°C° 0,2 mm 4 m/s 745 mmHg 76%
    12:00 +14°C° 0,4 mm 4 m/s 745 mmHg 76%
    13:00 +15°C° 0,4 mm 4 m/s 744 mmHg 76%
    14:00 +15°C° 0,4 mm 4 m/s 744 mmHg 76%
    15:00 +14°C° 0,4 mm 4 m/s 744 mmHg 78%
    16:00 +14°C° 0,4 mm 3 m/s 744 mmHg 80%
    17:00 +14°C° 0,4 mm 3 m/s 744 mmHg 82%
    18:00 +13°C° 0,3 mm 3 m/s 744 mmHg 84%
    19:00 +13°C° 0,3 mm 3 m/s 744 mmHg 85%
    20:00 +13°C° 0,3 mm 3 m/s 745 mmHg 87%
    21:00 +13°C° 0,2 mm 2 m/s 745 mmHg 87%
    22:00 +13°C° 0,2 mm 2 m/s 745 mmHg 87%
    23:00 +13°C° 0,2 mm 2 m/s 745 mmHg 87%

    Amanhã, 24 Fevereiro, Sábado

    Tempo Temperatura Precipitação Vento Pressão Humidade
    00:00 +13°C° 0,1 mm 2 m/s 745 mmHg 87%
    01:00 +13°C° 0,1 mm 2 m/s 745 mmHg 87%
    02:00 +13°C° 0,1 mm 2 m/s 745 mmHg 87%
    03:00 +12°C° 0,1 mm 2 m/s 745 mmHg 86%
    04:00 +12°C° 0,1 mm 2 m/s 745 mmHg 86%
    05:00 +12°C° 0,1 mm 2 m/s 745 mmHg 86%
    06:00 +12°C° 0,1 mm 2 m/s 745 mmHg 84%
    07:00 +13°C° 0,1 mm 2 m/s 745 mmHg 81%
    08:00 +14°C° 0,1 mm 2 m/s 746 mmHg 79%
    09:00 +15°C° 0 mm 2 m/s 746 mmHg 76%
    10:00 +15°C° 0 mm 2 m/s 746 mmHg 73%
    11:00 +16°C° 0 mm 2 m/s 746 mmHg 69%
    12:00 +16°C° 0 mm 2 m/s 745 mmHg 71%
    13:00 +16°C° 0 mm 2 m/s 745 mmHg 72%
    14:00 +16°C° 0 mm 2 m/s 745 mmHg 73%
    15:00 +16°C° 0,2 mm 2 m/s 745 mmHg 76%
    16:00 +16°C° 0,2 mm 2 m/s 745 mmHg 80%
    17:00 +15°C° 0,2 mm 2 m/s 744 mmHg 83%
    18:00 +15°C° 0,6 mm 2 m/s 744 mmHg 85%
    19:00 +15°C° 0,6 mm 2 m/s 744 mmHg 88%
    20:00 +13°C° 0,6 mm 3 m/s 744 mmHg 90%
    21:00 +13°C° 1,6 mm 4 m/s 744 mmHg 91%
    22:00 +13°C° 1,6 mm 5 m/s 744 mmHg 91%
    23:00 +13°C° 1,6 mm 6 m/s 744 mmHg 91%

    Depois de amanhã, 25 Fevereiro, Domingo

    Tempo Temperatura Precipitação Vento Pressão Humidade
    00:00 +13°C° 0,4 mm 6 m/s 744 mmHg 89%
    01:00 +11°C° 0,4 mm 7 m/s 744 mmHg 88%
    02:00 +11°C° 0,4 mm 7 m/s 743 mmHg 86%
    03:00 +11°C° 0,1 mm 7 m/s 743 mmHg 84%
    04:00 +10°C° 0,1 mm 7 m/s 743 mmHg 81%
    05:00 +10°C° 0,1 mm 7 m/s 743 mmHg 79%
    06:00 +10°C° 0 mm 6 m/s 743 mmHg 76%
    07:00 +11°C° 0 mm 6 m/s 743 mmHg 73%
    08:00 +12°C° 0 mm 5 m/s 744 mmHg 70%
    09:00 +13°C° 0 mm 5 m/s 743 mmHg 64%
    10:00 +14°C° 0 mm 5 m/s 743 mmHg 58%
    11:00 +15°C° 0 mm 4 m/s 743 mmHg 53%
    12:00 +16°C° 0 mm 5 m/s 743 mmHg 52%
    13:00 +16°C° 0 mm 5 m/s 743 mmHg 51%
    14:00 +16°C° 0 mm 6 m/s 743 mmHg 50%
    15:00 +16°C° 0 mm 5 m/s 743 mmHg 53%
    16:00 +15°C° 0 mm 5 m/s 743 mmHg 56%
    17:00 +15°C° 0 mm 5 m/s 743 mmHg 59%
    18:00 +14°C° 0 mm 5 m/s 743 mmHg 64%
    19:00 +13°C° 0 mm 5 m/s 743 mmHg 69%
    20:00 +12°C° 0 mm 4 m/s 744 mmHg 74%
    21:00 +12°C° 0 mm 4 m/s 744 mmHg 76%
    22:00 +12°C° 0 mm 4 m/s 744 mmHg 77%
    23:00 +12°C° 0 mm 4 m/s 744 mmHg 79%

    26 Fevereiro, Segunda-feira

    Tempo Temperatura Precipitação Vento Pressão Humidade
    00:00 +12°C° 0 mm 3 m/s 744 mmHg 79%
    01:00 +12°C° 0 mm 3 m/s 744 mmHg 80%
    02:00 +13°C° 0 mm 2 m/s 744 mmHg 81%
    03:00 +13°C° 0 mm 2 m/s 743 mmHg 82%
    04:00 +12°C° 0 mm 2 m/s 743 mmHg 83%
    05:00 +12°C° 0 mm 2 m/s 743 mmHg 83%
    06:00 +12°C° 0 mm 2 m/s 743 mmHg 82%
    07:00 +13°C° 0 mm 2 m/s 744 mmHg 80%
    08:00 +13°C° 0 mm 2 m/s 744 mmHg 79%
    09:00 +14°C° 0 mm 2 m/s 743 mmHg 73%
    10:00 +15°C° 0 mm 2 m/s 743 mmHg 68%
    11:00 +15°C° 0 mm 1 m/s 743 mmHg 62%
    12:00 +16°C° 0 mm 2 m/s 742 mmHg 62%
    13:00 +16°C° 0 mm 2 m/s 742 mmHg 63%
    14:00 +16°C° 0 mm 3 m/s 741 mmHg 64%
    15:00 +14°C° 0,4 mm 3 m/s 741 mmHg 69%
    16:00 +13°C° 0,4 mm 3 m/s 741 mmHg 75%
    17:00 +13°C° 0,4 mm 4 m/s 741 mmHg 81%
    18:00 +12°C° 2,9 mm 4 m/s 740 mmHg 85%
    19:00 +12°C° 2,9 mm 4 m/s 740 mmHg 89%
    20:00 +12°C° 2,9 mm 5 m/s 740 mmHg 93%
    21:00 +11°C° 4,2 mm 6 m/s 740 mmHg 94%
    22:00 +11°C° 4,2 mm 7 m/s 740 mmHg 94%
    23:00 +11°C° 4,2 mm 8 m/s 740 mmHg 95%

    27 Fevereiro, Terça-feira

    Tempo Temperatura Precipitação Vento Pressão Humidade
    00:00 +11°C° 0,4 mm 8 m/s 740 mmHg 92%
    01:00 +11°C° 0,4 mm 8 m/s 740 mmHg 89%
    02:00 +10°C° 0,4 mm 8 m/s 740 mmHg 87%
    03:00 +10°C° 0,1 mm 7 m/s 741 mmHg 86%
    04:00 +10°C° 0,1 mm 7 m/s 741 mmHg 84%
    05:00 +9°C° 0,1 mm 6 m/s 741 mmHg 83%
    06:00 +10°C° 0,1 mm 5 m/s 742 mmHg 80%
    07:00 +10°C° 0,1 mm 5 m/s 743 mmHg 76%
    08:00 +10°C° 0,1 mm 5 m/s 743 mmHg 72%
    09:00 +13°C° 0 mm 5 m/s 743 mmHg 67%
    10:00 +14°C° 0 mm 4 m/s 744 mmHg 63%
    11:00 +15°C° 0 mm 4 m/s 744 mmHg 58%
    12:00 +15°C° 0 mm 5 m/s 744 mmHg 58%
    13:00 +16°C° 0 mm 5 m/s 744 mmHg 57%
    14:00 +16°C° 0 mm 5 m/s 744 mmHg 57%
    15:00 +16°C° 0 mm 5 m/s 744 mmHg 61%
    16:00 +15°C° 0 mm 5 m/s 745 mmHg 65%
    17:00 +15°C° 0 mm 4 m/s 745 mmHg 68%
    18:00 +14°C° 0 mm 4 m/s 746 mmHg 73%
    19:00 +13°C° 0 mm 3 m/s 746 mmHg 78%
    20:00 +11°C° 0 mm 3 m/s 747 mmHg 83%
    21:00 +11°C° 0 mm 3 m/s 747 mmHg 83%
    22:00 +11°C° 0 mm 3 m/s 747 mmHg 84%
    23:00 +12°C° 0 mm 2 m/s 748 mmHg 84%

    28 Fevereiro, Quarta-feira

    Tempo Temperatura Precipitação Vento Pressão Humidade
    00:00 +12°C° 0 mm 2 m/s 748 mmHg 84%
    01:00 +12°C° 0 mm 2 m/s 748 mmHg 85%
    02:00 +12°C° 0 mm 2 m/s 748 mmHg 85%
    03:00 +12°C° 0 mm 2 m/s 748 mmHg 86%
    04:00 +12°C° 0 mm 2 m/s 748 mmHg 87%
    05:00 +12°C° 0 mm 1 m/s 748 mmHg 88%
    06:00 +13°C° 0 mm 2 m/s 748 mmHg 88%
    07:00 +13°C° 0 mm 2 m/s 748 mmHg 88%
    08:00 +13°C° 0 mm 2 m/s 748 mmHg 88%
    09:00 +14°C° 0,1 mm 2 m/s 748 mmHg 82%
    10:00 +15°C° 0,1 mm 2 m/s 748 mmHg 77%
    11:00 +16°C° 0,1 mm 2 m/s 748 mmHg 71%
    12:00 +16°C° 0,1 mm 2 m/s 748 mmHg 71%
    13:00 +16°C° 0,1 mm 2 m/s 748 mmHg 72%
    14:00 +16°C° 0,1 mm 2 m/s 748 mmHg 72%
    15:00 +15°C° 0,1 mm 2 m/s 748 mmHg 75%
    16:00 +15°C° 0,1 mm 1 m/s 748 mmHg 78%
    17:00 +15°C° 0,1 mm 1 m/s 748 mmHg 80%
    18:00 +14°C° 0 mm 1 m/s 748 mmHg 83%
    19:00 +14°C° 0 mm 1 m/s 749 mmHg 85%
    20:00 +13°C° 0 mm 0 m/s 749 mmHg 88%
    21:00 +13°C° 0 mm 1 m/s 749 mmHg 88%
    22:00 +13°C° 0 mm 1 m/s 750 mmHg 89%
    23:00 +12°C° 0 mm 1 m/s 750 mmHg 90%
    Mostrar mais